Location: Atbuku
(36.4936°N, 30.4362°E)
Time: 20:10:15
(UTC+00:00)

Cosmos 1607 - Pass Details

Date: 11 December 2025
Orbit: 926 x 976 km, 65.0° (Epoch: 12 January)

Event Time Altitude Azimuth Distance (km) Brightness Sun altitude
Rises 15:35:13 0° 329° (NNW) 3,615 7.1 -10.4°
Reaches altitude 10° 15:37:45 10° 330° (NNW) 2,674 6.4 -10.8°
Maximum altitude 15:44:02 88° 240° (WSW) 962 4.0 -12.0°
Drops below altitude 10° 15:50:21 10° 153° (SSE) 2,695 6.2 -13.2°
Sets 15:52:55 0° 153° (SSE) 3,644 6.9 -13.7°
